{"data":{"norad_id":53735,"intl_designator":"2022-107AM","name":"STARLINK-4618","alt_names":[],"object_type":"PAYLOAD","status":"ACTIVE","operator":null,"country":"US","launch_date":"2022-09-05","launch_site_code":"AFETR","launch_vehicle":null,"mission":null,"orbit_class":"UNKNOWN","rcs_meters":null,"size_class":null,"mass_kg":null,"dimensions":null,"purposes":["comms"],"wikipedia_slug":null,"has_3d_model":false,"image_url":null,"decayed_at":null,"tle_current":{"epoch":"2026-09-20T22:53:31.045920Z","epoch_age_seconds":42110,"freshness":"FRESH","line1":"1 53735U 22107AM  26263.95383155  .00000315  00000+0  20466-4 0  9993","line2":"2 53735  53.1598  91.3110 0001135  90.2282 269.8851 15.34390865224140","mean_motion":15.34390865,"eccentricity":0.0001135,"inclination_deg":53.1598,"raan_deg":91.311,"arg_perigee_deg":90.2282,"mean_anomaly_deg":269.8851,"bstar":2.0466e-5,"rev_number":22414,"period_min":93.848316804206,"perigee_km":461.95395303799,"apogee_km":463.50682993586,"semimajor_km":6840.8673914869,"source":"CELESTRAK","updated_at":"2026-09-21T09:00:32.988678Z"}}}